Regional Weather Roundup
Issued by NWS State College, PA

Home | Current Version | Previous Version | Graphics & Text | Print | Product List | Glossary On
Versions: 1 2 3 4 5 6 7 8 9 10 11 12 13 14 15 16 17 18 19 20 21 22 23 24 25 26 27 28 29 30 31 32 33 34 35 36 37 38 39 40 41 42 43 44 45 46 47 48 49 50
000
ASUS41 KCTP 220510
RWRCTP

REGIONAL WEATHER ROUNDUP
NATIONAL WEATHER SERVICE STATE COLLEGE PA
100 AM EDT TUE AUG 22 2017

Note: "fair" indicates few or no clouds below 12,000 feet with no
significant weather and/or obstructions to visibility.

* = STATION THAT DOES NOT REPORT PRECIPITATION /E.G. RAIN...SNOW...ETC/
    THUNDER OR FOG.

PAZ002>004-007>009-013>016-020>023-029>032-220600-
WESTERN PENNSYLVANIA

CITY           SKY/WX    TMP DP  RH WIND       PRES   REMARKS
ERIE           PTCLDY    78  70  76 S15       30.01S
MEADVILLE      CLEAR     74  72  93 S7        30.07F
FRANKLIN*      CLEAR     72  66  83 S8        30.10S
NEW CASTLE     FAIR      74  71  91 SW3       30.08F
BEAVER COUNTY  NOT AVBL
BUTLER*        CLEAR     73  70  88 S6        30.11R
PITTSBURGH INT PTCLDY    74  70  87 S3        30.10S
PITTSBURGH     CLEAR     74  68  81 S7        30.10F
INDIANA*       CLEAR     72  70  94 CALM      30.14F
LATROBE        CLEAR     68  68 100 CALM      30.12S
WASHINGTON CO* CLEAR     66  66 100 CALM      30.11F
$$

PAZ004>006-010>012-017>019-024>028-033>037-041-042-045-046-049>053-220600-
CENTRAL PENNSYLVANIA

CITY           SKY/WX    TMP DP  RH WIND       PRES   REMARKS
BRADFORD       PTCLDY    69  69 100 S3        30.12F
DUBOIS         CLEAR     71  68  90 SW3       30.12F FOG
CLEARFIELD     CLEAR     68  68 100 CALM      30.12F FOG
JOHNSTOWN      CLEAR     73  67  81 SW7       30.17F
ALTOONA        CLEAR     68  67  96 SW5       30.14F
STATE COLLEGE  CLOUDY    70  68  93 SW3       30.12S
WILLIAMSPORT   CLOUDY    70  70 100 CALM      30.07F FOG
SELINSGROVE    MOCLDY    70  70 100 CALM      30.09F FOG
FT INDIANTOWN  PTCLDY    69  69 100 CALM      30.11F
CAPITAL CITY   CLEAR     74  70  87 E5        30.09F
HARRISBURG     PTCLDY    73  71  93 E5        30.09F
YORK           CLEAR     71  70  96 CALM      30.10F
$$

PAZ038>040-043-044-047-048-054-055-060>062-067>071-220600-
EASTERN PENNSYLVANIA

CITY           SKY/WX    TMP DP  RH WIND       PRES   REMARKS
SCRANTON       CLEAR     68  67  96 CALM      30.10F
MOUNT POCONO   PTCLDY    67  67 100 W5        30.15F
ALLENTOWN      CLEAR     72  68  87 NW3       30.11S
QUAKERTOWN*    CLOUDY    73  73 100 CALM      30.12F
READING        CLEAR     70  70 100 CALM      30.09F
LANCASTER      CLEAR     70  70 100 CALM      30.11F
COATESVILLE    CLOUDY    72  70  94 CALM      30.13F
POTTSTOWN      MOCLDY    71  70  96 CALM      30.12F
BLUE BELL      CLOUDY    73  72  94 CALM      30.11F
DOYLESTOWN     LGT RAIN  74  72  93 CALM      30.10F
WILLOW GROVE   NOT AVBL
NORTH PHILA    CLOUDY    80  74  81 SW9       30.11F
PHILADELPHIA   CLOUDY    78  73  84 S6        30.11F
$$




USA.gov is the U.S. government's official web portal to all federal, state and local government web resources and services.